TimeEDT,TemperatureF,Dew PointF,Humidity,Sea Level PressureIn,VisibilityMPH,Wind Direction,Wind SpeedMPH,Gust SpeedMPH,PrecipitationIn,Events,Conditions,WindDirDegrees,DateUTC
12:53 AM,63.0,62.1,97,29.63,10.0,Calm,Calm,-,N/A,,Clear,0,2013-06-29 04:53:00
1:53 AM,63.0,62.1,97,29.62,10.0,Calm,Calm,-,N/A,,Clear,0,2013-06-29 05:53:00
2:53 AM,63.0,62.1,97,29.60,10.0,WSW,3.5,-,N/A,,Clear,250,2013-06-29 06:53:00
3:53 AM,64.0,62.1,93,29.59,10.0,Calm,Calm,-,N/A,,Clear,0,2013-06-29 07:53:00
4:53 AM,63.0,61.0,93,29.60,10.0,SW,4.6,-,N/A,,Clear,230,2013-06-29 08:53:00
5:53 AM,63.0,61.0,93,29.61,10.0,Calm,Calm,-,N/A,,Mostly Cloudy,0,2013-06-29 09:53:00
6:53 AM,64.0,62.1,93,29.62,10.0,West,3.5,-,N/A,,Partly Cloudy,260,2013-06-29 10:53:00
7:53 AM,66.9,63.0,87,29.63,10.0,SW,6.9,-,N/A,,Partly Cloudy,230,2013-06-29 11:53:00
8:53 AM,70.0,63.0,78,29.63,10.0,SW,5.8,-,N/A,,Partly Cloudy,220,2013-06-29 12:53:00
9:53 AM,73.0,63.0,71,29.63,10.0,Variable,6.9,-,N/A,,Partly Cloudy,0,2013-06-29 13:53:00
10:53 AM,77.0,64.9,66,29.62,10.0,Variable,4.6,-,N/A,,Partly Cloudy,0,2013-06-29 14:53:00
11:53 AM,73.9,64.0,71,29.63,10.0,West,4.6,-,0.00,Rain,Light Rain,270,2013-06-29 15:53:00
12:53 PM,78.1,68.0,71,29.62,10.0,SW,5.8,-,0.03,,Scattered Clouds,230,2013-06-29 16:53:00
1:53 PM,77.0,63.0,62,29.61,10.0,West,5.8,-,N/A,,Mostly Cloudy,270,2013-06-29 17:53:00
2:53 PM,80.1,64.9,60,29.61,10.0,West,8.1,-,N/A,,Mostly Cloudy,270,2013-06-29 18:53:00
3:53 PM,80.1,63.0,56,29.60,10.0,SW,12.7,16.1,N/A,,Scattered Clouds,230,2013-06-29 19:53:00
4:53 PM,80.1,64.0,58,29.59,10.0,WSW,9.2,-,N/A,,Partly Cloudy,240,2013-06-29 20:53:00
5:53 PM,78.1,62.1,58,29.59,10.0,WSW,6.9,-,N/A,,Mostly Cloudy,250,2013-06-29 21:53:00
6:53 PM,77.0,64.0,64,29.60,10.0,NW,4.6,-,N/A,,Overcast,320,2013-06-29 22:53:00
7:32 PM,75.2,66.2,73,29.63,10.0,North,3.5,-,N/A,Thunderstorm,Overcast,10,2013-06-29 23:32:00
7:50 PM,73.4,64.4,73,29.64,10.0,NNW,9.2,16.1,N/A,Thunderstorm,Overcast,340,2013-06-29 23:50:00
7:53 PM,73.9,64.9,73,29.62,10.0,North,11.5,17.3,N/A,Thunderstorm,Mostly Cloudy,360,2013-06-29 23:53:00
8:16 PM,68.0,62.6,83,29.66,2.5,NNW,9.2,-,0.11,Rain-Thunderstorm,Thunderstorms and Rain,340,2013-06-30 00:16:00
8:30 PM,66.2,62.6,88,29.67,1.2,NW,6.9,-,0.22,Rain-Thunderstorm,Heavy Thunderstorms and Rain,320,2013-06-30 00:30:00
8:37 PM,64.4,62.6,94,29.66,3.0,North,4.6,-,0.24,Rain-Thunderstorm,Light Rain,360,2013-06-30 00:37:00
8:44 PM,66.2,62.6,88,29.66,10.0,Calm,Calm,-,0.24,Rain,Light Rain,0,2013-06-30 00:44:00
8:53 PM,64.9,62.1,90,29.64,10.0,Calm,Calm,-,0.24,,Mostly Cloudy,0,2013-06-30 00:53:00
9:53 PM,64.9,63.0,93,29.64,10.0,ESE,4.6,-,N/A,,Partly Cloudy,120,2013-06-30 01:53:00
10:09 PM,64.4,62.6,94,29.68,9.0,WNW,13.8,21.9,0.00,Rain-Thunderstorm,Light Thunderstorms and Rain,290,2013-06-30 02:09:00
10:15 PM,64.4,62.6,94,29.68,1.8,SW,3.5,21.9,0.04,Rain-Thunderstorm,Heavy Thunderstorms and Rain,220,2013-06-30 02:15:00
10:23 PM,64.4,62.6,94,29.67,3.0,Calm,Calm,-,0.09,Rain-Thunderstorm,Light Rain,0,2013-06-30 02:23:00
10:44 PM,64.4,62.6,94,29.67,1.5,Calm,Calm,-,0.14,Rain-Thunderstorm,Heavy Thunderstorms and Rain,0,2013-06-30 02:44:00
10:53 PM,64.9,64.0,97,29.66,2.5,Calm,Calm,-,0.16,Rain,Light Rain,0,2013-06-30 02:53:00
11:00 PM,64.4,62.6,94,29.69,9.0,WSW,5.8,-,0.01,Rain,Light Rain,250,2013-06-30 03:00:00
11:53 PM,64.0,63.0,96,29.65,10.0,Calm,Calm,-,0.08,,Scattered Clouds,0,2013-06-30 03:53:00